Regional Weather Roundup
Issued by NWS

Home | Current Version | Previous Version | Text Only | Print | Product List | Glossary On
Versions: 1 2 3 4 5 6 7 8 9 10 11 12 13 14 15 16 17 18 19 20 21 22 23 24 25 26 27 28 29 30 31 32 33 34 35 36 37 38 39 40 41 42 43 44 45 46 47 48 49 50
000
ASUS44 KOUN 251110
RWROK

WEATHER ROUNDUP FOR OKLAHOMA
NATIONAL WEATHER SERVICE NORMAN OK
600 AM CDT FRI JUL 25 2014

NOTE: "FAIR" INDICATES FEW OR NO CLOUDS BELOW 12,000 FEET WITH NO
      SIGNIFICANT WEATHER AND/OR OBSTRUCTIONS TO VISIBILITY.

OKZ001>007-009>012-014-015-017-251200-
NORTHWEST OKLAHOMA AND THE PANHANDLE

CITY           SKY/WX    TMP DP  RH WIND       PRES   REMARKS
GAGE           CLEAR     75  66  73 S13       29.97R
ENID/WOODRING  CLEAR     70  68  94 S8        29.94S
$$

OKZ016-021>023-033>039-044-045-251200-
SOUTHWEST OKLAHOMA

CITY           SKY/WX    TMP DP  RH WIND       PRES   REMARKS
LAWTON/REGL    CLEAR     71  66  84 S3        29.99F
LAWTON/FT SILL CLEAR     73  67  80 S7        29.99S
FREDERICK      CLEAR     73  66  78 S8        29.96F
CLINTON        CLEAR     75  64  68 S18       30.00F
HOBART         CLEAR     73  65  75 S13       30.00S
ALTUS AFB      CLEAR     71  68  90 SE6       29.99S
$$

OKZ018>020-024>031-251200-
CENTRAL OKLAHOMA

CITY           SKY/WX    TMP DP  RH WIND       PRES   REMARKS
OKLAHOMA CITY  PTCLDY    72  67  84 S8        29.99S
OKC/WILEY POST CLEAR     75  68  78 S15       29.98S
OKC/TINKER AFB PTCLDY    72  68  89 S14       29.99F
STILLWATER     PTCLDY    73  68  84 S12       29.95F
GUTHRIE        CLEAR     74  68  81 S9        29.97S
$$

OKZ008-013-054>072-251200-
NORTHEAST OKLAHOMA

CITY           SKY/WX    TMP DP  RH WIND       PRES   REMARKS
TULSA          PTCLDY    75  71  87 S14G21    29.95S
TULSA/JONES    CLEAR     74  71  91 S6        29.97S
PONCA CITY     PTCLDY    75  69  81 S6        29.93F
BARTLESVILLE   CLEAR     71  70  96 S3        29.95S
MUSKOGEE       CLEAR     71  70  96 S7        30.00R FOG
$$

OKZ032-040>043-046>053-073>077-251200-
SOUTH CENTRAL/SOUTHEAST OKLAHOMA

CITY           SKY/WX    TMP DP  RH WIND       PRES   REMARKS
ARDMORE/DWNTWN CLEAR     72  70  94 SE3       30.02S
MCALESTER      PTCLDY    73  71  93 S7        30.01S FOG
$$



USA.gov is the U.S. government's official web portal to all federal, state and local government web resources and services.